TimeEDT,TemperatureF,Dew PointF,Humidity,Sea Level PressureIn,VisibilityMPH,Wind Direction,Wind SpeedMPH,Gust SpeedMPH,PrecipitationIn,Events,Conditions,WindDirDegrees,DateUTC
12:15 AM,62.6,62.6,100,30.21,5.0,Calm,Calm,-,N/A,,Clear,0,2012-10-13 04:15:00
12:35 AM,60.8,60.8,100,30.21,7.0,Calm,Calm,-,N/A,,Clear,0,2012-10-13 04:35:00
12:55 AM,60.8,60.8,100,30.20,5.0,Calm,Calm,-,N/A,,Clear,0,2012-10-13 04:55:00
2:15 AM,59.0,59.0,100,30.20,6.0,Calm,Calm,-,N/A,,Clear,0,2012-10-13 06:15:00
2:35 AM,59.0,59.0,100,30.19,5.0,Calm,Calm,-,N/A,,Clear,0,2012-10-13 06:35:00
2:55 AM,59.0,59.0,100,30.19,6.0,Calm,Calm,-,N/A,,Clear,0,2012-10-13 06:55:00
3:15 AM,59.0,59.0,100,30.18,5.0,Calm,Calm,-,N/A,,Clear,0,2012-10-13 07:15:00
3:35 AM,59.0,59.0,100,30.18,5.0,Calm,Calm,-,N/A,,Clear,0,2012-10-13 07:35:00
3:55 AM,59.0,59.0,100,30.18,4.0,Calm,Calm,-,N/A,,Clear,0,2012-10-13 07:55:00
4:15 AM,59.0,59.0,100,30.18,5.0,Calm,Calm,-,N/A,,Clear,0,2012-10-13 08:15:00
4:35 AM,59.0,59.0,100,30.18,7.0,Calm,Calm,-,N/A,,Clear,0,2012-10-13 08:35:00
4:55 AM,59.0,59.0,100,30.18,5.0,Calm,Calm,-,N/A,,Clear,0,2012-10-13 08:55:00
5:15 AM,59.0,59.0,100,30.19,5.0,Calm,Calm,-,N/A,,Clear,0,2012-10-13 09:15:00
5:35 AM,59.0,59.0,100,30.19,6.0,Calm,Calm,-,N/A,,Clear,0,2012-10-13 09:35:00
5:55 AM,59.0,59.0,100,30.20,5.0,Calm,Calm,-,N/A,,Clear,0,2012-10-13 09:55:00
6:15 AM,59.0,59.0,100,30.20,4.0,Calm,Calm,-,N/A,,Clear,0,2012-10-13 10:15:00
6:50 AM,59.0,59.0,100,30.21,7.0,Calm,Calm,-,N/A,,Clear,0,2012-10-13 10:50:00
7:50 AM,59.0,59.0,100,30.23,7.0,Calm,Calm,-,N/A,,Clear,0,2012-10-13 11:50:00
9:50 AM,73.4,66.2,78,30.25,7.0,NNE,5.8,-,N/A,,Clear,30,2012-10-13 13:50:00
10:50 AM,77.0,66.2,69,30.26,7.0,ENE,9.2,-,N/A,,Mostly Cloudy,60,2012-10-13 14:50:00
11:50 AM,80.6,66.2,61,30.26,7.0,ENE,9.2,-,N/A,,Mostly Cloudy,60,2012-10-13 15:50:00
12:50 PM,80.6,64.4,58,30.25,7.0,ENE,17.3,-,N/A,,Mostly Cloudy,60,2012-10-13 16:50:00
1:50 PM,80.6,64.4,58,30.22,7.0,East,17.3,-,N/A,,Scattered Clouds,90,2012-10-13 17:50:00
2:50 PM,80.6,64.4,58,30.20,7.0,ENE,13.8,-,N/A,,Scattered Clouds,60,2012-10-13 18:50:00
3:50 PM,80.6,64.4,58,30.18,7.0,ENE,13.8,-,N/A,,Scattered Clouds,60,2012-10-13 19:50:00
7:50 PM,71.6,68.0,88,30.20,7.0,North,4.6,-,N/A,,Scattered Clouds,10,2012-10-13 23:50:00
8:55 PM,71.6,68.0,88,30.21,10.0,North,5.8,-,N/A,,Partly Cloudy,360,2012-10-14 00:55:00
9:35 PM,69.8,68.0,94,30.21,10.0,North,5.8,-,N/A,,Clear,10,2012-10-14 01:35:00
10:15 PM,69.8,68.0,94,30.21,10.0,North,5.8,-,N/A,,Partly Cloudy,10,2012-10-14 02:15:00
10:35 PM,69.8,69.8,100,30.21,10.0,North,4.6,-,N/A,,Partly Cloudy,10,2012-10-14 02:35:00
10:55 PM,69.8,69.8,100,30.21,9.0,North,4.6,-,N/A,,Partly Cloudy,10,2012-10-14 02:55:00
11:15 PM,69.8,69.8,100,30.20,7.0,North,5.8,-,N/A,,Scattered Clouds,10,2012-10-14 03:15:00